| time (UTC) | temp F | wind direction | speed knots | gust knots | rain 1hr in | rain 24hr in | rain mn in | humidity % | barometer mb |
| 20260904050525 | 62 | 212 | 1.7 | 3.5 | 0.00 | 0.00 | 0.00 | 51 | 1009.8 |
| 20260904050045 | 62 | 191 | 0.9 | 3.5 | 0.00 | 0.00 | 0.00 | 52 | 1009.8 |
| 20260904045525 | 63 | 195 | 1.7 | 3.5 | 0.00 | 0.00 | 0.00 | 49 | 1009.8 |
| 20260904045027 | 63 | 0 | 0.0 | 1.7 | 0.00 | 0.00 | 0.00 | 44 | 1009.8 |
| 20260904044548 | 63 | 0 | 0.9 | 1.7 | 0.00 | 0.00 | 0.00 | 43 | 1009.8 |
| 20260904044031 | 63 | 0 | 0.0 | 2.6 | 0.00 | 0.00 | 0.00 | 46 | 1009.9 |
| 20260904043527 | 63 | 200 | 0.0 | 2.6 | 0.00 | 0.00 | 0.00 | 47 | 1009.9 |
| 20260904043057 | 62 | 200 | 0.9 | 2.6 | 0.00 | 0.00 | 0.00 | 48 | 1010.0 |
| 20260904042530 | 63 | 193 | 0.9 | 1.7 | 0.00 | 0.00 | 0.00 | 56 | 1010.0 |
| 20260904042026 | 63 | 0 | 0.0 | 1.7 | 0.00 | 0.00 | 0.00 | 53 | 1010.0 |
| 20260904041543 | 63 | 193 | 0.0 | 1.7 | 0.00 | 0.00 | 0.00 | 53 | 1010.1 |
| 20260904041025 | 63 | 193 | 0.0 | 1.7 | 0.00 | 0.00 | 0.00 | 51 | 1010.0 |
| 20260904040524 | 63 | 193 | 0.9 | 1.7 | 0.00 | 0.00 | 0.00 | 48 | 1010.1 |
| 20260904040045 | 63 | 193 | 0.0 | 1.7 | 0.00 | 0.00 | 0.00 | 47 | 1010.0 |
| 20260904035526 | 63 | 0 | 0.0 | 1.7 | 0.00 | 0.00 | 0.00 | 46 | 1010.0 |
| 20260904035024 | 63 | 0 | 0.0 | 0.9 | 0.00 | 0.00 | 0.00 | 48 | 1009.9 |
| 20260904034550 | 63 | 0 | 0.0 | 0.9 | 0.00 | 0.00 | 0.00 | 43 | 1010.0 |
| 20260904034024 | 64 | 0 | 0.0 | 0.9 | 0.00 | 0.00 | 0.00 | 48 | 1010.1 |
| 20260904033529 | 64 | 0 | 0.0 | 1.7 | 0.00 | 0.00 | 0.00 | 44 | 1010.1 |
| 20260904033051 | 64 | 0 | 0.0 | 2.6 | 0.00 | 0.00 | 0.00 | 44 | 1010.1 |
| 20260904032530 | 64 | 193 | 0.0 | 2.6 | 0.00 | 0.00 | 0.00 | 43 | 1010.0 |
| 20260904032026 | 64 | 193 | 0.0 | 0.9 | 0.00 | 0.00 | 0.00 | 45 | 1010.2 |
| 20260904031546 | 65 | 0 | 0.0 | 0.0 | 0.00 | 0.00 | 0.00 | 44 | 1010.0 |
| 20260904031024 | 65 | 0 | 0.0 | 0.0 | 0.00 | 0.00 | 0.00 | 36 | 1009.9 |
| 20260904030526 | 65 | 0 | 0.0 | 0.0 | 0.00 | 0.00 | 0.00 | 37 | 1010.0 |
| 20260904030044 | 65 | 0 | 0.0 | 0.0 | 0.00 | 0.00 | 0.00 | 37 | 1009.8 |
| 20260904025525 | 66 | 0 | 0.0 | 0.0 | 0.00 | 0.00 | 0.00 | 38 | 1009.7 |
| 20260904025025 | 66 | 0 | 0.0 | 0.0 | 0.00 | 0.00 | 0.00 | 42 | 1009.7 |
| 20260904024546 | 66 | 0 | 0.0 | 0.0 | 0.00 | 0.00 | 0.00 | 39 | 1009.7 |
| 20260904024025 | 67 | 0 | 0.0 | 0.0 | 0.00 | 0.00 | 0.00 | 37 | 1009.4 |
| 20260904023525 | 67 | 0 | 0.0 | 0.0 | 0.00 | 0.00 | 0.00 | 36 | 1009.4 |
| 20260904023054 | 68 | 0 | 0.0 | 0.0 | 0.00 | 0.00 | 0.00 | 37 | 1009.2 |
| 20260904022525 | 68 | 0 | 0.0 | 0.0 | 0.00 | 0.00 | 0.00 | 37 | 1009.2 |
| 20260904022026 | 68 | 0 | 0.0 | 0.0 | 0.00 | 0.00 | 0.00 | 38 | 1009.1 |
| 20260904021555 | 69 | 0 | 0.0 | 0.0 | 0.00 | 0.00 | 0.00 | 38 | 1009.3 |
| 20260904021025 | 69 | 0 | 0.0 | 0.0 | 0.00 | 0.00 | 0.00 | 39 | 1009.2 |
| 20260904020525 | 70 | 0 | 0.0 | 0.0 | 0.00 | 0.00 | 0.00 | 41 | 1009.1 |
| 20260904020045 | 70 | 0 | 0.0 | 0.0 | 0.00 | 0.00 | 0.00 | 36 | 1009.1 |
| 20260904015524 | 71 | 0 | 0.0 | 1.7 | 0.00 | 0.00 | 0.00 | 36 | 1009.1 |
| 20260904015024 | 71 | 0 | 0.0 | 1.7 | 0.00 | 0.00 | 0.00 | 38 | 1009.1 |
| 20260904014619 | 72 | 0 | 0.0 | 1.7 | 0.00 | 0.00 | 0.00 | 37 | 1009.1 |
| 20260904014025 | 72 | 0 | 0.0 | 0.0 | 0.00 | 0.00 | 0.00 | 36 | 1009.0 |
| 20260904013526 | 73 | 0 | 0.0 | 0.0 | 0.00 | 0.00 | 0.00 | 35 | 1009.1 |
| 20260904013058 | 74 | 0 | 0.0 | 0.9 | 0.00 | 0.00 | 0.00 | 37 | 1009.0 |
| 20260904012526 | 75 | 0 | 0.0 | 0.9 | 0.00 | 0.00 | 0.00 | 38 | 1009.0 |
| 20260904012027 | 76 | 0 | 0.0 | 0.9 | 0.00 | 0.00 | 0.00 | 33 | 1009.1 |
| 20260904011546 | 77 | 0 | 0.0 | 0.9 | 0.00 | 0.00 | 0.00 | 33 | 1008.9 |
| 20260904011024 | 78 | 42 | 0.0 | 0.9 | 0.00 | 0.00 | 0.00 | 31 | 1009.1 |
| 20260904010524 | 79 | 42 | 0.0 | 2.6 | 0.00 | 0.00 | 0.00 | 29 | 1009.1 |
| 20260904010046 | 80 | 0 | 0.0 | 2.6 | 0.00 | 0.00 | 0.00 | 29 | 1009.1 |
| 20260904005527 | 81 | 49 | 0.9 | 4.3 | 0.00 | 0.00 | 0.00 | 28 | 1009.1 |
| 20260904005024 | 81 | 0 | 0.0 | 4.3 | 0.00 | 0.00 | 0.00 | 29 | 1009.1 |
| 20260904004550 | 81 | 41 | 1.7 | 4.3 | 0.00 | 0.00 | 0.00 | 26 | 1009.1 |
| 20260904004027 | 81 | 46 | 0.9 | 2.6 | 0.00 | 0.00 | 0.00 | 26 | 1009.1 |
| 20260904003526 | 81 | 51 | 0.0 | 2.6 | 0.00 | 0.00 | 0.00 | 26 | 1009.1 |
| 20260904003045 | 81 | 0 | 0.0 | 2.6 | 0.00 | 0.00 | 0.00 | 27 | 1009.1 |
| 20260904002526 | 81 | 41 | 0.0 | 2.6 | 0.00 | 0.00 | 0.00 | 25 | 1009.1 |
| 20260904002025 | 82 | 342 | 0.0 | 5.2 | 0.00 | 0.00 | 0.00 | 32 | 1009.1 |
| 20260904001542 | 82 | 30 | 0.9 | 5.2 | 0.00 | 0.00 | 0.00 | 26 | 1009.1 |
| 20260904001024 | 82 | 46 | 0.9 | 7.0 | 0.00 | 0.00 | 0.00 | 26 | 1009.2 |
| 20260904000525 | 82 | 37 | 3.5 | 7.0 | 0.00 | 0.00 | 0.00 | 22 | 1009.2 |
| 20260903235529 | 83 | 56 | 1.7 | 6.1 | 0.00 | 0.00 | 0.00 | 23 | 1009.2 |
| 20260903235024 | 83 | 72 | 2.6 | 4.3 | 0.00 | 0.00 | 0.00 | 22 | 1009.2 |
| 20260903234552 | 83 | 136 | 1.7 | 4.3 | 0.00 | 0.00 | 0.00 | 23 | 1009.3 |
| 20260903234025 | 83 | 0 | 0.0 | 3.5 | 0.00 | 0.00 | 0.00 | 23 | 1009.3 |
| 20260903233525 | 83 | 331 | 0.9 | 4.3 | 0.00 | 0.00 | 0.00 | 23 | 1009.2 |
| 20260903233045 | 84 | 307 | 1.7 | 4.3 | 0.00 | 0.00 | 0.00 | 18 | 1009.3 |
| 20260903232528 | 84 | 290 | 0.9 | 4.3 | 0.00 | 0.00 | 0.00 | 19 | 1009.4 |
| 20260903232025 | 84 | 281 | 0.9 | 4.3 | 0.00 | 0.00 | 0.00 | 25 | 1009.4 |
| 20260903231548 | 84 | 260 | 0.9 | 6.1 | 0.00 | 0.00 | 0.00 | 23 | 1009.4 |
| 20260903231024 | 84 | 215 | 0.9 | 6.1 | 0.00 | 0.00 | 0.00 | 25 | 1009.5 |
| 20260903230527 | 84 | 209 | 1.7 | 6.1 | 0.00 | 0.00 | 0.00 | 24 | 1009.5 |
| 20260903230044 | 84 | 15 | 0.9 | 2.6 | 0.00 | 0.00 | 0.00 | 19 | 1009.4 |
| 20260903225524 | 83 | 0 | 0.0 | 7.8 | 0.00 | 0.00 | 0.00 | 22 | 1009.5 |
| 20260903225026 | 83 | 275 | 1.7 | 7.8 | 0.00 | 0.00 | 0.00 | 21 | 1009.5 |
| 20260903224554 | 83 | 147 | 3.5 | 7.8 | 0.00 | 0.00 | 0.00 | 25 | 1009.5 |
| 20260903224024 | 84 | 174 | 2.6 | 6.1 | 0.00 | 0.00 | 0.00 | 22 | 1009.5 |
| 20260903223525 | 83 | 0 | 0.0 | 5.2 | 0.00 | 0.00 | 0.00 | 20 | 1009.5 |
| 20260903223043 | 83 | 94 | 0.9 | 9.6 | 0.00 | 0.00 | 0.00 | 25 | 1009.5 |
| 20260903222525 | 83 | 212 | 2.6 | 9.6 | 0.00 | 0.00 | 0.00 | 22 | 1009.7 |
| 20260903222025 | 83 | 157 | 4.3 | 9.6 | 0.00 | 0.00 | 0.00 | 20 | 1009.5 |
| 20260903221550 | 82 | 89 | 2.6 | 7.8 | 0.00 | 0.00 | 0.00 | 23 | 1009.5 |
| 20260903221024 | 82 | 58 | 4.3 | 7.8 | 0.00 | 0.00 | 0.00 | 22 | 1009.6 |
| 20260903220524 | 82 | 77 | 1.7 | 10.4 | 0.00 | 0.00 | 0.00 | 22 | 1009.7 |
| 20260903220105 | 82 | 160 | 2.6 | 10.4 | 0.00 | 0.00 | 0.00 | 21 | 1009.7 |
| 20260903215525 | 82 | 93 | 5.2 | 10.4 | 0.00 | 0.00 | 0.00 | 22 | 1009.8 |
| 20260903215024 | 82 | 237 | 3.5 | 7.8 | 0.00 | 0.00 | 0.00 | 25 | 1009.8 |
| 20260903214551 | 83 | 147 | 3.5 | 7.8 | 0.00 | 0.00 | 0.00 | 21 | 1009.8 |
| 20260903214028 | 83 | 157 | 2.6 | 6.1 | 0.00 | 0.00 | 0.00 | 26 | 1009.8 |
| 20260903213529 | 83 | 210 | 3.5 | 6.1 | 0.00 | 0.00 | 0.00 | 23 | 1009.8 |
| 20260903213048 | 83 | 212 | 1.7 | 5.2 | 0.00 | 0.00 | 0.00 | 23 | 1009.8 |
| 20260903212523 | 83 | 71 | 0.0 | 5.2 | 0.00 | 0.00 | 0.00 | 25 | 1009.8 |
| 20260903212023 | 83 | 201 | 2.6 | 7.0 | 0.00 | 0.00 | 0.00 | 26 | 1009.8 |
| 20260903211544 | 83 | 188 | 2.6 | 7.0 | 0.00 | 0.00 | 0.00 | 21 | 1009.8 |
| 20260903211024 | 83 | 245 | 0.9 | 6.1 | 0.00 | 0.00 | 0.00 | 31 | 1009.9 |
| 20260903210525 | 82 | 205 | 0.9 | 6.1 | 0.00 | 0.00 | 0.00 | 27 | 1009.7 |
| 20260903210049 | 82 | 225 | 2.6 | 7.8 | 0.00 | 0.00 | 0.00 | 22 | 1009.8 |
| 20260903205525 | 82 | 201 | 4.3 | 7.8 | 0.00 | 0.00 | 0.00 | 26 | 1010.0 |
| 20260903205026 | 82 | 150 | 2.6 | 10.4 | 0.00 | 0.00 | 0.00 | 21 | 1009.8 |
| 20260903204545 | 82 | 268 | 1.7 | 12.2 | 0.00 | 0.00 | 0.00 | 23 | 1010.0 |
| 20260903204024 | 81 | 278 | 4.3 | 12.2 | 0.00 | 0.00 | 0.00 | 22 | 1010.0 |
| 20260903203525 | 82 | 188 | 6.1 | 10.4 | 0.00 | 0.00 | 0.00 | 26 | 1009.9 |
| 20260903203045 | 82 | 169 | 3.5 | 7.0 | 0.00 | 0.00 | 0.00 | 26 | 1010.0 |
| 20260903202523 | 82 | 95 | 3.5 | 8.7 | 0.00 | 0.00 | 0.00 | 26 | 1010.0 |
| 20260903202025 | 81 | 119 | 1.7 | 8.7 | 0.00 | 0.00 | 0.00 | 27 | 1010.1 |
| 20260903201544 | 81 | 155 | 1.7 | 6.1 | 0.00 | 0.00 | 0.00 | 23 | 1010.1 |
| 20260903201023 | 81 | 180 | 3.5 | 11.3 | 0.00 | 0.00 | 0.00 | 27 | 1010.3 |
| 20260903200527 | 81 | 202 | 3.5 | 11.3 | 0.00 | 0.00 | 0.00 | 26 | 1010.3 |
| 20260903200051 | 81 | 33 | 4.3 | 10.4 | 0.00 | 0.00 | 0.00 | 28 | 1010.3 |
| 20260903195525 | 80 | 15 | 2.6 | 8.7 | 0.00 | 0.00 | 0.00 | 25 | 1010.3 |
| 20260903195029 | 80 | 28 | 1.7 | 8.7 | 0.00 | 0.00 | 0.00 | 25 | 1010.5 |
| 20260903194552 | 80 | 92 | 3.5 | 8.7 | 0.00 | 0.00 | 0.00 | 24 | 1010.6 |
| 20260903194026 | 79 | 102 | 3.5 | 7.0 | 0.00 | 0.00 | 0.00 | 26 | 1010.6 |
| 20260903193529 | 79 | 351 | 3.5 | 7.8 | 0.00 | 0.00 | 0.00 | 24 | 1010.7 |
| 20260903193050 | 79 | 1 | 4.3 | 7.8 | 0.00 | 0.00 | 0.00 | 25 | 1010.7 |
| 20260903192524 | 79 | 68 | 3.5 | 9.6 | 0.00 | 0.00 | 0.00 | 24 | 1010.7 |
| 20260903192025 | 79 | 51 | 5.2 | 9.6 | 0.00 | 0.00 | 0.00 | 26 | 1010.8 |
| 20260903191547 | 78 | 336 | 2.6 | 8.7 | 0.00 | 0.00 | 0.00 | 28 | 1010.9 |
| 20260903191029 | 78 | 20 | 4.3 | 8.7 | 0.00 | 0.00 | 0.00 | 26 | 1010.9 |
| 20260903190524 | 78 | 46 | 4.3 | 8.7 | 0.00 | 0.00 | 0.00 | 28 | 1010.7 |
| 20260903190058 | 78 | 63 | 5.2 | 8.7 | 0.00 | 0.00 | 0.00 | 26 | 1010.9 |
| 20260903185524 | 78 | 45 | 2.6 | 7.0 | 0.00 | 0.00 | 0.00 | 31 | 1010.8 |
| 20260903185025 | 78 | 33 | 2.6 | 7.0 | 0.00 | 0.00 | 0.00 | 34 | 1011.0 |
| 20260903184544 | 79 | 72 | 4.3 | 7.0 | 0.00 | 0.00 | 0.00 | 28 | 1011.1 |
| 20260903184027 | 79 | 132 | 3.5 | 7.0 | 0.00 | 0.00 | 0.00 | 28 | 1011.2 |
| 20260903183527 | 78 | 61 | 2.6 | 7.0 | 0.00 | 0.00 | 0.00 | 27 | 1011.1 |
| 20260903183056 | 78 | 141 | 2.6 | 7.0 | 0.00 | 0.00 | 0.00 | 25 | 1011.2 |
| 20260903182526 | 78 | 108 | 3.5 | 7.0 | 0.00 | 0.00 | 0.00 | 25 | 1011.1 |
| 20260903182025 | 77 | 113 | 1.7 | 5.2 | 0.00 | 0.00 | 0.00 | 25 | 1011.2 |
| 20260903181551 | 77 | 27 | 1.7 | 4.3 | 0.00 | 0.00 | 0.00 | 24 | 1011.2 |
| 20260903181027 | 77 | 39 | 1.7 | 4.3 | 0.00 | 0.00 | 0.00 | 34 | 1011.3 |
| 20260903180525 | 76 | 80 | 1.7 | 4.3 | 0.00 | 0.00 | 0.00 | 26 | 1011.3 |
| 20260903180051 | 76 | 129 | 2.6 | 4.3 | 0.00 | 0.00 | 0.00 | 29 | 1011.5 |
| 20260903175524 | 76 | 106 | 1.7 | 4.3 | 0.00 | 0.00 | 0.00 | 29 | 1011.6 |
| 20260903175025 | 76 | 360 | 0.9 | 2.6 | 0.00 | 0.00 | 0.00 | 26 | 1011.6 |
| 20260903174544 | 75 | 0 | 0.0 | 1.7 | 0.00 | 0.00 | 0.00 | 34 | 1011.7 |
| 20260903174024 | 75 | 0 | 0.0 | 1.7 | 0.00 | 0.00 | 0.00 | 26 | 1011.7 |
| 20260903173528 | 76 | 0 | 0.0 | 4.3 | 0.00 | 0.00 | 0.00 | 27 | 1011.7 |
| 20260903173054 | 76 | 102 | 0.0 | 4.3 | 0.00 | 0.00 | 0.00 | 25 | 1011.8 |
| 20260903172525 | 76 | 36 | 1.7 | 4.3 | 0.00 | 0.00 | 0.00 | 23 | 1011.8 |
| 20260903172025 | 76 | 172 | 1.7 | 4.3 | 0.00 | 0.00 | 0.00 | 30 | 1011.7 |
| 20260903171548 | 76 | 195 | 0.0 | 2.6 | 0.00 | 0.00 | 0.00 | 28 | 1011.9 |
| 20260903171025 | 76 | 328 | 0.0 | 4.3 | 0.00 | 0.00 | 0.00 | 32 | 1011.9 |
| 20260903170524 | 76 | 139 | 0.0 | 4.3 | 0.00 | 0.00 | 0.00 | 28 | 1011.9 |
| 20260903170055 | 76 | 157 | 2.6 | 4.3 | 0.00 | 0.00 | 0.00 | 30 | 1012.0 |
| 20260903165526 | 76 | 221 | 1.7 | 4.3 | 0.00 | 0.00 | 0.00 | 27 | 1012.0 |
| 20260903165024 | 76 | 359 | 0.9 | 3.5 | 0.00 | 0.00 | 0.00 | 28 | 1012.0 |
| 20260903164557 | 75 | 248 | 0.0 | 4.3 | 0.00 | 0.00 | 0.00 | 33 | 1011.9 |
| 20260903164026 | 75 | 284 | 0.9 | 4.3 | 0.00 | 0.00 | 0.00 | 34 | 1012.0 |
| 20260903163526 | 74 | 25 | 1.7 | 4.3 | 0.00 | 0.00 | 0.00 | 26 | 1012.1 |
| 20260903163100 | 74 | 0 | 0.9 | 3.5 | 0.00 | 0.00 | 0.00 | 30 | 1012.2 |
| 20260903162524 | 74 | 355 | 0.9 | 3.5 | 0.00 | 0.00 | 0.00 | 35 | 1012.2 |
| 20260903162025 | 73 | 345 | 0.9 | 2.6 | 0.00 | 0.00 | 0.00 | 34 | 1012.2 |
| 20260903161548 | 73 | 47 | 0.0 | 3.5 | 0.00 | 0.00 | 0.00 | 35 | 1012.0 |
| 20260903161026 | 73 | 0 | 0.9 | 3.5 | 0.00 | 0.00 | 0.00 | 38 | 1012.1 |
| 20260903160529 | 72 | 279 | 0.0 | 1.7 | 0.00 | 0.00 | 0.00 | 41 | 1011.9 |
| 20260903160043 | 71 | 0 | 0.0 | 2.6 | 0.00 | 0.00 | 0.00 | 44 | 1012.0 |
| 20260903155525 | 70 | 0 | 0.0 | 2.6 | 0.00 | 0.00 | 0.00 | 46 | 1011.9 |
| 20260903155024 | 69 | 0 | 0.0 | 1.7 | 0.00 | 0.00 | 0.00 | 45 | 1011.9 |
| 20260903154543 | 68 | 0 | 0.0 | 1.7 | 0.00 | 0.00 | 0.00 | 46 | 1011.9 |
| 20260903154024 | 67 | 0 | 0.0 | 2.6 | 0.00 | 0.00 | 0.00 | 45 | 1012.0 |
| 20260903153523 | 66 | 37 | 0.9 | 2.6 | 0.00 | 0.00 | 0.00 | 44 | 1011.9 |
| 20260903153050 | 66 | 37 | 1.7 | 2.6 | 0.00 | 0.00 | 0.00 | 47 | 1012.1 |
| 20260903152526 | 64 | 46 | 0.0 | 3.5 | 0.00 | 0.00 | 0.00 | 48 | 1012.0 |
| 20260903152025 | 63 | 0 | 0.9 | 3.5 | 0.00 | 0.00 | 0.00 | 49 | 1011.9 |
| 20260903151546 | 62 | 270 | 1.7 | 5.2 | 0.00 | 0.00 | 0.00 | 53 | 1012.0 |
| 20260903151025 | 61 | 176 | 0.9 | 5.2 | 0.00 | 0.00 | 0.00 | 56 | 1011.8 |
| 20260903150524 | 61 | 162 | 2.6 | 5.2 | 0.00 | 0.00 | 0.00 | 50 | 1011.9 |
| 20260903150108 | 60 | 0 | 0.0 | 2.6 | 0.00 | 0.00 | 0.00 | 56 | 1011.9 |
| 20260903145524 | 60 | 0 | 0.9 | 3.5 | 0.00 | 0.00 | 0.00 | 58 | 1011.9 |
| 20260903145025 | 59 | 150 | 0.9 | 3.5 | 0.00 | 0.00 | 0.00 | 55 | 1011.8 |
| 20260903144545 | 59 | 155 | 1.7 | 3.5 | 0.00 | 0.00 | 0.00 | 59 | 1012.0 |
| 20260903144025 | 59 | 188 | 1.7 | 3.5 | 0.00 | 0.00 | 0.00 | 57 | 1011.9 |
| 20260903143525 | 58 | 0 | 1.7 | 3.5 | 0.00 | 0.00 | 0.00 | 56 | 1012.0 |
| 20260903143046 | 58 | 222 | 0.9 | 2.6 | 0.00 | 0.00 | 0.00 | 55 | 1012.0 |
| 20260903142528 | 57 | 224 | 0.0 | 2.6 | 0.00 | 0.00 | 0.00 | 54 | 1011.9 |
| 20260903142027 | 57 | 224 | 0.9 | 2.6 | 0.00 | 0.00 | 0.00 | 56 | 1011.8 |
| 20260903141547 | 57 | 222 | 0.9 | 2.6 | 0.00 | 0.00 | 0.00 | 55 | 1011.8 |
| 20260903141027 | 57 | 238 | 0.9 | 2.6 | 0.00 | 0.00 | 0.00 | 57 | 1011.7 |
| 20260903140524 | 57 | 0 | 0.0 | 2.6 | 0.00 | 0.00 | 0.00 | 55 | 1011.5 |
| 20260903140048 | 57 | 268 | 0.9 | 2.6 | 0.00 | 0.00 | 0.00 | 53 | 1011.3 |
| 20260903135525 | 57 | 267 | 0.9 | 2.6 | 0.00 | 0.00 | 0.00 | 51 | 1011.3 |
| 20260903135026 | 57 | 193 | 0.9 | 2.6 | 0.00 | 0.00 | 0.00 | 53 | 1011.3 |
| 20260903134544 | 57 | 262 | 0.9 | 3.5 | 0.00 | 0.00 | 0.00 | 52 | 1011.2 |
| 20260903134025 | 57 | 266 | 0.9 | 3.5 | 0.00 | 0.00 | 0.00 | 52 | 1011.2 |
| 20260903133524 | 57 | 226 | 0.9 | 3.5 | 0.00 | 0.00 | 0.00 | 55 | 1011.0 |
| 20260903133052 | 57 | 198 | 1.7 | 4.3 | 0.00 | 0.00 | 0.00 | 57 | 1010.9 |
| 20260903132526 | 57 | 232 | 1.7 | 4.3 | 0.00 | 0.00 | 0.00 | 56 | 1010.9 |
| 20260903132024 | 58 | 197 | 1.7 | 4.3 | 0.00 | 0.00 | 0.00 | 54 | 1010.8 |
| 20260903131547 | 57 | 241 | 0.9 | 3.5 | 0.00 | 0.00 | 0.00 | 54 | 1010.7 |
| 20260903131027 | 57 | 227 | 1.7 | 3.5 | 0.00 | 0.00 | 0.00 | 56 | 1010.8 |
| 20260903130527 | 58 | 225 | 0.0 | 2.6 | 0.00 | 0.00 | 0.00 | 56 | 1010.3 |
| 20260903130044 | 58 | 0 | 0.0 | 3.5 | 0.00 | 0.00 | 0.00 | 56 | 1010.3 |
| 20260903125523 | 58 | 225 | 0.9 | 3.5 | 0.00 | 0.00 | 0.00 | 56 | 1010.2 |
| 20260903125029 | 58 | 225 | 0.0 | 2.6 | 0.00 | 0.00 | 0.00 | 58 | 1010.2 |
| 20260903124553 | 58 | 0 | 0.0 | 1.7 | 0.00 | 0.00 | 0.00 | 58 | 1010.1 |
| 20260903124023 | 58 | 333 | 0.0 | 1.7 | 0.00 | 0.00 | 0.00 | 57 | 1010.0 |
| 20260903123526 | 59 | 0 | 0.0 | 0.9 | 0.00 | 0.00 | 0.00 | 58 | 1010.0 |
| 20260903123046 | 59 | 0 | 0.0 | 0.9 | 0.00 | 0.00 | 0.00 | 58 | 1010.1 |
| 20260903122525 | 59 | 333 | 0.0 | 1.7 | 0.00 | 0.00 | 0.00 | 59 | 1010.0 |
| 20260903122026 | 59 | 0 | 0.0 | 2.6 | 0.00 | 0.00 | 0.00 | 56 | 1010.1 |
| 20260903121548 | 59 | 333 | 0.9 | 4.3 | 0.00 | 0.00 | 0.00 | 58 | 1009.9 |
| 20260903121024 | 59 | 236 | 0.9 | 4.3 | 0.00 | 0.00 | 0.00 | 54 | 1010.0 |
| 20260903120524 | 59 | 266 | 0.9 | 3.5 | 0.00 | 0.00 | 0.00 | 53 | 1010.0 |
| 20260903120052 | 59 | 0 | 0.0 | 2.6 | 0.00 | 0.00 | 0.00 | 56 | 1010.0 |
| 20260903115523 | 59 | 153 | 0.9 | 3.5 | 0.00 | 0.00 | 0.00 | 55 | 1010.1 |
| 20260903115023 | 59 | 259 | 0.9 | 4.3 | 0.00 | 0.00 | 0.00 | 52 | 1010.2 |
| 20260903114604 | 59 | 259 | 0.9 | 4.3 | 0.00 | 0.00 | 0.00 | 55 | 1010.2 |
| 20260903114024 | 58 | 124 | 1.7 | 4.3 | 0.00 | 0.00 | 0.00 | 57 | 1010.2 |
| 20260903113529 | 59 | 265 | 0.0 | 2.6 | 0.00 | 0.00 | 0.00 | 58 | 1010.0 |
| 20260903113044 | 59 | 283 | 0.9 | 2.6 | 0.00 | 0.00 | 0.00 | 60 | 1010.2 |
| 20260903112526 | 59 | 289 | 0.0 | 2.6 | 0.00 | 0.00 | 0.00 | 58 | 1010.1 |
| 20260903112026 | 59 | 289 | 0.9 | 2.6 | 0.00 | 0.00 | 0.00 | 57 | 1010.4 |
| 20260903111550 | 59 | 288 | 0.0 | 2.6 | 0.00 | 0.00 | 0.00 | 56 | 1010.6 |
| 20260903111029 | 59 | 288 | 0.9 | 2.6 | 0.00 | 0.00 | 0.00 | 55 | 1010.5 |
| 20260903110524 | 59 | 0 | 0.0 | 2.6 | 0.00 | 0.00 | 0.00 | 55 | 1010.8 |
| 20260903110044 | 60 | 0 | 0.0 | 1.7 | 0.00 | 0.00 | 0.00 | 55 | 1010.7 |
| 20260903105523 | 60 | 288 | 0.0 | 1.7 | 0.00 | 0.00 | 0.00 | 56 | 1010.7 |
| 20260903105023 | 60 | 288 | 0.9 | 2.6 | 0.00 | 0.00 | 0.00 | 53 | 1010.7 |
| 20260903104546 | 60 | 288 | 0.9 | 2.6 | 0.00 | 0.00 | 0.00 | 54 | 1010.9 |
| 20260903104027 | 60 | 191 | 0.0 | 1.7 | 0.00 | 0.00 | 0.00 | 55 | 1010.7 |
| 20260903103525 | 60 | 191 | 0.9 | 1.7 | 0.00 | 0.00 | 0.00 | 54 | 1010.6 |
| 20260903103051 | 60 | 0 | 0.0 | 2.6 | 0.00 | 0.00 | 0.00 | 47 | 1010.5 |
| 20260903102526 | 59 | 0 | 0.0 | 2.6 | 0.00 | 0.00 | 0.00 | 53 | 1010.6 |
| 20260903102024 | 59 | 198 | 0.9 | 1.7 | 0.00 | 0.00 | 0.00 | 59 | 1010.6 |
| 20260903101553 | 59 | 301 | 0.9 | 1.7 | 0.00 | 0.00 | 0.00 | 60 | 1010.3 |
| 20260903101023 | 59 | 0 | 0.0 | 0.0 | 0.00 | 0.00 | 0.00 | 59 | 1010.6 |
| 20260903100524 | 59 | 0 | 0.0 | 0.0 | 0.00 | 0.00 | 0.00 | 59 | 1010.8 |
| 20260903100046 | 59 | 0 | 0.0 | 1.7 | 0.00 | 0.00 | 0.00 | 55 | 1010.8 |
| 20260903095523 | 59 | 0 | 0.0 | 1.7 | 0.00 | 0.00 | 0.00 | 57 | 1010.7 |
| 20260903095024 | 59 | 301 | 0.9 | 2.6 | 0.00 | 0.00 | 0.00 | 59 | 1010.7 |
| 20260903094551 | 60 | 0 | 0.0 | 2.6 | 0.00 | 0.00 | 0.00 | 60 | 1010.4 |
| 20260903094025 | 60 | 301 | 0.9 | 2.6 | 0.00 | 0.00 | 0.00 | 57 | 1010.6 |
| 20260903093529 | 60 | 297 | 0.0 | 2.6 | 0.00 | 0.00 | 0.00 | 56 | 1010.4 |
| 20260903093113 | 60 | 297 | 0.9 | 2.6 | 0.00 | 0.00 | 0.00 | 57 | 1010.2 |
| 20260903092524 | 60 | 0 | 0.0 | 2.6 | 0.00 | 0.00 | 0.00 | 60 | 1010.2 |
| 20260903092027 | 60 | 0 | 0.9 | 2.6 | 0.00 | 0.00 | 0.00 | 55 | 1010.3 |
| 20260903091555 | 60 | 306 | 0.0 | 0.0 | 0.00 | 0.00 | 0.00 | 54 | 1010.3 |
| 20260903091024 | 60 | 0 | 0.0 | 0.0 | 0.00 | 0.00 | 0.00 | 53 | 1010.2 |
| 20260903090523 | 60 | 0 | 0.0 | 0.0 | 0.00 | 0.00 | 0.00 | 53 | 1010.2 |
| 20260903090047 | 61 | 0 | 0.0 | 0.9 | 0.00 | 0.00 | 0.00 | 56 | 1010.0 |
| 20260903085522 | 61 | 0 | 0.0 | 1.7 | 0.00 | 0.00 | 0.00 | 53 | 1010.0 |
| 20260903085022 | 61 | 0 | 0.0 | 1.7 | 0.00 | 0.00 | 0.00 | 50 | 1010.0 |
| 20260903084545 | 61 | 0 | 0.0 | 1.7 | 0.00 | 0.00 | 0.00 | 52 | 1009.8 |
| 20260903084025 | 61 | 306 | 0.0 | 0.9 | 0.00 | 0.00 | 0.00 | 53 | 1009.7 |
| 20260903083526 | 61 | 0 | 0.0 | 0.9 | 0.00 | 0.00 | 0.00 | 50 | 1009.7 |
| 20260903083044 | 62 | 0 | 0.0 | 0.9 | 0.00 | 0.00 | 0.00 | 52 | 1009.7 |
| 20260903082531 | 62 | 0 | 0.0 | 1.7 | 0.00 | 0.00 | 0.00 | 52 | 1009.7 |
| 20260903082024 | 62 | 0 | 0.0 | 3.5 | 0.00 | 0.00 | 0.00 | 53 | 1009.6 |
| 20260903081554 | 62 | 333 | 0.9 | 3.5 | 0.00 | 0.00 | 0.00 | 48 | 1009.5 |
| 20260903081030 | 62 | 333 | 0.9 | 3.5 | 0.00 | 0.00 | 0.00 | 49 | 1009.5 |
| 20260903080532 | 63 | 0 | 0.0 | 2.6 | 0.00 | 0.00 | 0.00 | 49 | 1009.5 |
| 20260903080045 | 63 | 0 | 0.0 | 2.6 | 0.00 | 0.00 | 0.00 | 49 | 1009.6 |
| 20260903075525 | 63 | 13 | 0.9 | 2.6 | 0.00 | 0.00 | 0.00 | 46 | 1009.5 |
| 20260903075031 | 63 | 119 | 0.0 | 1.7 | 0.00 | 0.00 | 0.00 | 46 | 1009.6 |
| 20260903074545 | 63 | 0 | 0.0 | 0.0 | 0.00 | 0.00 | 0.00 | 46 | 1009.6 |
| 20260903074028 | 63 | 0 | 0.0 | 2.6 | 0.00 | 0.00 | 0.00 | 46 | 1009.8 |
| 20260903073527 | 63 | 0 | 0.0 | 3.5 | 0.00 | 0.00 | 0.00 | 48 | 1009.6 |
| 20260903073052 | 63 | 127 | 0.9 | 3.5 | 0.00 | 0.00 | 0.00 | 46 | 1009.6 |
| 20260903072526 | 63 | 70 | 1.7 | 3.5 | 0.00 | 0.00 | 0.00 | 48 | 1009.7 |
| 20260903072027 | 63 | 342 | 0.9 | 5.2 | 0.00 | 0.00 | 0.00 | 48 | 1009.8 |
| 20260903071610 | 63 | 0 | 0.9 | 5.2 | 0.00 | 0.00 | 0.00 | 47 | 1009.8 |
| 20260903071023 | 64 | 359 | 2.6 | 5.2 | 0.00 | 0.00 | 0.00 | 50 | 1009.8 |
| 20260903070531 | 64 | 8 | 0.9 | 4.3 | 0.00 | 0.00 | 0.00 | 46 | 1009.8 |
| 20260903070059 | 64 | 78 | 1.7 | 3.5 | 0.00 | 0.00 | 0.00 | 44 | 1009.7 |
| 20260903065525 | 64 | 67 | 0.9 | 5.2 | 0.00 | 0.00 | 0.00 | 47 | 1009.8 |
| 20260903065025 | 64 | 305 | 2.6 | 5.2 | 0.00 | 0.00 | 0.00 | 50 | 1009.8 |
| 20260903064550 | 64 | 52 | 2.6 | 4.3 | 0.00 | 0.00 | 0.00 | 47 | 1009.6 |
| 20260903064027 | 64 | 0 | 0.9 | 3.5 | 0.00 | 0.00 | 0.00 | 47 | 1009.7 |
| 20260903063527 | 65 | 0 | 0.9 | 3.5 | 0.00 | 0.00 | 0.00 | 45 | 1009.5 |
| 20260903063059 | 66 | 136 | 0.9 | 3.5 | 0.00 | 0.00 | 0.00 | 45 | 1009.5 |
| 20260903062527 | 65 | 137 | 0.0 | 6.1 | 0.00 | 0.00 | 0.00 | 38 | 1009.4 |
| 20260903062026 | 65 | 0 | 0.9 | 6.1 | 0.00 | 0.00 | 0.00 | 38 | 1009.5 |
| 20260903061546 | 64 | 247 | 0.0 | 6.1 | 0.00 | 0.00 | 0.00 | 42 | 1009.6 |
| 20260903061026 | 64 | 0 | 0.0 | 1.7 | 0.00 | 0.00 | 0.00 | 42 | 1009.5 |
| 20260903060524 | 64 | 212 | 0.9 | 3.5 | 0.00 | 0.00 | 0.00 | 45 | 1009.5 |
| 20260903060048 | 63 | 0 | 0.9 | 3.5 | 0.00 | 0.00 | 0.00 | 46 | 1009.6 |
| 20260903055525 | 64 | 0 | 0.0 | 2.6 | 0.00 | 0.00 | 0.00 | 50 | 1009.6 |
| 20260903055024 | 64 | 249 | 0.0 | 2.6 | 0.00 | 0.00 | 0.00 | 51 | 1009.5 |
| 20260903054545 | 65 | 347 | 0.9 | 2.6 | 0.00 | 0.00 | 0.00 | 48 | 1009.5 |
| 20260903054028 | 65 | 0 | 0.9 | 1.7 | 0.00 | 0.00 | 0.00 | 45 | 1009.3 |
| 20260903053528 | 65 | 0 | 0.0 | 3.5 | 0.00 | 0.00 | 0.00 | 48 | 1009.4 |
| 20260903053052 | 65 | 236 | 0.0 | 3.5 | 0.00 | 0.00 | 0.00 | 46 | 1009.4 |
| 20260903052527 | 65 | 0 | 0.0 | 1.7 | 0.00 | 0.00 | 0.00 | 44 | 1009.5 |
| 20260903052025 | 65 | 0 | 0.0 | 1.7 | 0.00 | 0.00 | 0.00 | 43 | 1009.5 |
| 20260903051557 | 64 | 0 | 0.0 | 2.6 | 0.00 | 0.00 | 0.00 | 45 | 1009.5 |
| 20260903051026 | 64 | 0 | 0.0 | 2.6 | 0.00 | 0.00 | 0.00 | 46 | 1009.5 |